[[{"header":{"parameterUnit":"m.s-1","parameterCategory":1,"la1":30.2991,"la2":30.254,"lo1":-89.0895,"lo2":-89.0444,"dy":0.0017,"dx":0.0017,"nx":28,"ny":28,"refTime":"2025-03-22T09:00:00:Z","depth":0,"parameterNumber":2,"parameterNumberName":"U-component_of_WINDS"},"data":[0,0,0,0,0,0,0,0,0,0,0,0,0,0,0,0,0,0,0,0,0,0,0,0,0,0,0,0,0,0,0,0,0,0,0,0,0,0,0,0,0,0,0,0,0,0,0,0,0,0,0,0,0,0,0,0,0,0,0.1868,0.1869,0,0.1931,0.1932,0.1933,0.1938,0.1937,0.1937,0.1936,0.2002,0.2004,0.2007,0,0,0,0,0,0,0,0,0,0,0,0,0,0.1751,0.1753,0.1868,0.1869,0.1869,0.1931,0.1932,0.1933,0.1938,0.1937,0.1936,0.1936,0.2001,0.2004,0.2007,0,0,0,0,0,0,0,0,0,0,0,0,0,0.1807,0.1753,0.1868,0.1879,0.1881,0.1931,0.1932,0.1933,0.1938,0.1937,0.1936,0.1935,0.2,0.2004,0.2007,0.205,0,0,0.2018,0.202,0,0,0,0,0,0,0,0,0.1803,0.1811,0.1877,0.1879,0.1881,0.1926,0.1915,0.1972,0.1938,0.1917,0.1936,0.1935,0.1977,0.1983,0.1997,0.2053,0.2056,0.2019,0.2021,0.2022,0.2023,0,0,0,0,0,0,0,0.1799,0.1808,0.1893,0.1878,0.188,0.1881,0.1888,0.1926,0.1952,0.1918,0.1919,0.1926,0.1978,0.1994,0.1999,0.2057,0.2018,0.2022,0.2024,0.2025,0.215,0.2151,0,0,0,0,0,0,0.1793,0.1805,0.1891,0.1895,0.1839,0.1884,0.1892,0.1912,0.1952,0.1957,0.1927,0.1926,0.1988,0.1994,0.2001,0.2053,0.2022,0.2026,0.2028,0.2148,0.215,0.2151,0,0,0,0,0,0,0.1791,0.1801,0.1888,0.185,0.1861,0.1887,0.191,0.1914,0.1929,0.1958,0.1963,0.1938,0.1987,0.1996,0.2037,0.2055,0.2027,0.2031,0.2147,0.2149,0.215,0.2157,0,0,0,0,0,0,0.1787,0.18,0.1817,0.185,0.1863,0.1924,0.1911,0.1916,0.1935,0.1935,0.197,0.1974,0.1987,0.2032,0.2041,0.206,0.2033,0.2146,0.2148,0.215,0.2155,0.2159,0.2162,0,0,0,0,0,0.1783,0.1817,0.1818,0.1828,0.1885,0.1925,0.1932,0.1946,0.1937,0.1954,0.1972,0.1973,0.2051,0.2036,0.2046,0.2066,0.2145,0.2147,0.215,0.2154,0.2158,0.2162,0,0,0,0,0,0,0.1786,0.1822,0.1823,0.1868,0.1893,0.1926,0.1948,0.195,0.1979,0.1977,0.1993,0.2001,0.2042,0.2058,0.204,0.2109,0.2097,0.2102,0.2097,0.2101,0.2104,0.2099,0.2036,0,0,0,0,0,0.1791,0.1821,0.1851,0.1888,0.19,0.1922,0.194,0.1948,0.1975,0.1985,0.2007,0.2033,0.2063,0.2083,0.2113,0.2157,0.2164,0.2176,0.2179,0.2182,0.2186,0.2209,0.2214,0.2159,0.2159,0.2159,0,0,0.1804,0.1827,0.1845,0.1889,0.1909,0.1939,0.1931,0.1963,0.1985,0.1991,0.2031,0.2047,0.2077,0.212,0.214,0.2135,0.2202,0.2185,0.2187,0.2189,0.2212,0.2217,0.2222,0.2161,0.2161,0.2161,0,0,0.1841,0.1862,0.1895,0.1915,0.1946,0.1959,0.1967,0.1998,0.2009,0.205,0.2054,0.208,0.2132,0.2153,0.217,0.2213,0.2215,0.2223,0.2239,0.2262,0.2266,0.227,0.2285,0.229,0.2226,0.2226,0.2226,0,0.1853,0.1898,0.1911,0.1943,0.1962,0.1967,0.2,0.2019,0.2057,0.207,0.2064,0.2128,0.2149,0.2196,0.2206,0.222,0.2229,0.2219,0.2265,0.2269,0.2272,0.2287,0.2292,0.2227,0.2227,0.2227,0.2227,0,0.191,0.1941,0.1964,0.2001,0.2022,0.2054,0.2071,0.2091,0.2097,0.2111,0.2151,0.2176,0.221,0.2221,0.2228,0.2269,0.2265,0.2261,0.225,0.2278,0.2291,0.2297,0.2228,0.2228,0.2228,0.2227,0,0,0.1952,0.1994,0.2002,0.2018,0.2052,0.2076,0.2108,0.214,0.2156,0.2182,0.2209,0.2252,0.2248,0.2268,0.2276,0.2296,0.2328,0.229,0.2291,0.2296,0.2373,0.2375,0.2381,0.2329,0.233,0.2331,0.237,0,0.1993,0.205,0.2062,0.2111,0.2139,0.2143,0.2171,0.2194,0.2207,0.2233,0.2248,0.2278,0.2271,0.2283,0.2303,0.232,0.2343,0.2317,0.2353,0.2354,0.2346,0.2389,0.2392,0.2428,0.2376,0.2377,0.2377,0,0.2049,0.2076,0.2127,0.2155,0.2167,0.2192,0.2222,0.2246,0.2272,0.228,0.2301,0.2307,0.2339,0.2326,0.237,0.2352,0.2367,0.2377,0.2379,0.2383,0.2368,0.2393,0.244,0.2445,0.2386,0.2385,0.2385,0,0.2074,0.2122,0.2159,0.2173,0.2206,0.2223,0.2238,0.2263,0.2281,0.2307,0.2318,0.2348,0.2364,0.2387,0.24,0.2389,0.2443,0.2431,0.245,0.245,0.2462,0.2461,0.2511,0.2472,0.2472,0.2472,0.2472,0,0.2118,0.2149,0.217,0.2193,0.2227,0.224,0.2274,0.2289,0.231,0.2335,0.2341,0.2364,0.238,0.2405,0.2416,0.245,0.2458,0.2465,0.2468,0.2465,0.2464,0.2475,0.2473,0.2473,0.2473,0.2473,0.2472,0,0.2152,0.2167,0.2207,0.2235,0.2243,0.2267,0.2291,0.2313,0.2326,0.2357,0.2365,0.2386,0.2415,0.2431,0.2469,0.2475,0.2514,0.2515,0.2505,0.2506,0.2525,0.2522,0.2584,0.2592,0.2548,0.2548,0.2549,0,0.2179,0.2203,0.2233,0.225,0.2265,0.2293,0.2311,0.2324,0.2342,0.2372,0.239,0.242,0.2445,0.2492,0.251,0.2539,0.254,0.256,0.2545,0.254,0.254,0.2538,0.254,0.2562,0.2563,0.2563,0.2564,0,0.2225,0.2231,0.2257,0.2286,0.2307,0.233,0.2353,0.2366,0.2383,0.2403,0.2434,0.2453,0.249,0.252,0.2549,0.2564,0.2566,0.2568,0.2574,0.2571,0.2564,0.2567,0.2512,0.2567,0.2566,0.2566,0.2566,0.2566,0.2256,0.2277,0.2301,0.233,0.2348,0.2369,0.239,0.2405,0.243,0.2462,0.2468,0.2499,0.2523,0.2562,0.2578,0.2603,0.2598,0.2607,0.2609,0.2611,0.2612,0.256,0.2608,0.2608,0.2608,0.2608,0.2608,0,0.2302,0.2318,0.2344,0.2375,0.2397,0.2396,0.2421,0.2439,0.2467,0.2489,0.2513,0.2547,0.2575,0.2594,0.2623,0.2638,0.264,0.2645,0.2644,0.2647,0.2614,0.2606,0.2643,0.2643,0.2643,0.2643,0.2643,0.2643,0.2329,0.2364,0.2372,0.2416,0.2431,0.2462,0.2476,0.2495,0.2512,0.2549,0.2572,0.2585,0.2605,0.2635,0.266,0.2665,0.2675,0.268,0.2685,0.2654,0.265,0.2646,0.2639,0.2682,0.2682,0.2716,0.2716,0.2717]},{"header":{"parameterUnit":"m.s-1","parameterCategory":1,"la1":30.2991,"la2":30.254,"lo1":-89.0895,"lo2":-89.0444,"dy":0.0017,"dx":0.0017,"nx":28,"ny":28,"refTime":"2025-03-22T09:00:00:Z","depth":0,"parameterNumber":3,"parameterNumberName":"V-component_of_WINDS"},"data":[0,0,0,0,0,0,0,0,0,0,0,0,0,0,0,0,0,0,0,0,0,0,0,0,0,0,0,0,0,0,0,0,0,0,0,0,0,0,0,0,0,0,0,0,0,0,0,0,0,0,0,0,0,0,0,0,0,0,3.075,3.0751,0,3.089,3.0891,3.0893,3.0847,3.0844,3.0841,3.0838,3.0971,3.0977,3.0983,0,0,0,0,0,0,0,0,0,0,0,0,0,3.0431,3.0437,3.0749,3.0751,3.0753,3.089,3.0892,3.0893,3.0848,3.0844,3.084,3.0837,3.0969,3.0976,3.0984,0,0,0,0,0,0,0,0,0,0,0,0,0,3.057,3.0439,3.0749,3.0747,3.0748,3.0889,3.0892,3.0894,3.0848,3.0844,3.0839,3.0835,3.0966,3.0975,3.0985,3.1133,0,0,3.1014,3.1018,0,0,0,0,0,0,0,0,3.0562,3.0582,3.0745,3.0747,3.0749,3.0847,3.0828,3.0974,3.0849,3.081,3.0838,3.0833,3.0932,3.0944,3.098,3.1139,3.1145,3.1014,3.102,3.1024,3.1027,0,0,0,0,0,0,0,3.0553,3.0575,3.0804,3.0748,3.075,3.0735,3.075,3.0855,3.0894,3.0813,3.081,3.0828,3.0932,3.0971,3.0983,3.1147,3.1014,3.1023,3.1028,3.1032,3.1436,3.1441,0,0,0,0,0,0,3.0543,3.0568,3.08,3.0809,3.0643,3.0745,3.0761,3.082,3.0893,3.09,3.0832,3.0825,3.0957,3.0972,3.0987,3.1168,3.1024,3.1033,3.1039,3.1431,3.1437,3.1442,0,0,0,0,0,0,3.0537,3.0565,3.0794,3.0688,3.0716,3.0755,3.0821,3.0825,3.0864,3.0907,3.0913,3.0865,3.0954,3.0974,3.1098,3.1171,3.1037,3.1046,3.1425,3.1433,3.144,3.1528,0,0,0,0,0,0,3.0528,3.0563,3.0622,3.0689,3.0722,3.0907,3.0825,3.0831,3.0881,3.0875,3.094,3.0946,3.0952,3.1085,3.1108,3.1182,3.1053,3.1419,3.1428,3.1437,3.1519,3.1538,3.1554,0,0,0,0,0,3.0517,3.0638,3.0625,3.0653,3.0797,3.0911,3.0929,3.0936,3.0888,3.0946,3.0974,3.0944,3.116,3.1098,3.1123,3.1202,3.1414,3.1426,3.1437,3.1511,3.1534,3.1554,0,0,0,0,0,0,3.0573,3.0647,3.0633,3.0781,3.0841,3.0903,3.0977,3.096,3.1032,3.1022,3.1024,3.104,3.1168,3.1196,3.1126,3.135,3.1279,3.1296,3.1327,3.1349,3.1366,3.1357,3.1061,0,0,0,0,0,3.0604,3.0694,3.0751,3.0876,3.0907,3.0937,3.0987,3.0988,3.1048,3.1072,3.1109,3.1166,3.1246,3.1299,3.1375,3.1522,3.1536,3.1589,3.1606,3.1621,3.1635,3.1717,3.1741,3.148,3.148,3.1479,0,0,3.0666,3.0717,3.0773,3.0889,3.0935,3.1026,3.0958,3.1056,3.1122,3.1085,3.1207,3.1236,3.1299,3.1437,3.1498,3.1464,3.1711,3.1635,3.1646,3.1653,3.1731,3.1756,3.1778,3.1487,3.1486,3.1485,0,0,3.0827,3.0875,3.0985,3.1034,3.1107,3.1126,3.1153,3.1219,3.1238,3.1361,3.1336,3.1412,3.155,3.1597,3.1639,3.1819,3.1795,3.1843,3.1935,3.2015,3.2035,3.2053,3.2119,3.2142,3.1858,3.1858,3.1858,0,3.0894,3.1033,3.1042,3.1145,3.1196,3.1171,3.1281,3.1326,3.1418,3.1453,3.1414,3.1589,3.1629,3.1778,3.1823,3.1857,3.1886,3.1836,3.2032,3.2051,3.2068,3.213,3.2154,3.1864,3.1863,3.1862,3.1862,0,3.1113,3.1209,3.1289,3.1385,3.1444,3.1549,3.1572,3.1631,3.1627,3.165,3.1774,3.1822,3.1909,3.1944,3.1938,3.2092,3.2069,3.2031,3.196,3.2098,3.2157,3.2181,3.1872,3.187,3.1868,3.1867,0,0,3.1313,3.1415,3.1444,3.1488,3.1567,3.164,3.1742,3.1832,3.1882,3.1946,3.2032,3.2151,3.2118,3.2165,3.2164,3.2234,3.2375,3.2187,3.2189,3.2222,3.2548,3.2578,3.2605,3.2359,3.2364,3.2367,3.2543,0,3.1481,3.1669,3.1681,3.1848,3.1937,3.1915,3.2005,3.2061,3.2086,3.2162,3.2186,3.2271,3.222,3.2249,3.2316,3.2344,3.2441,3.2331,3.2437,3.2441,3.2424,3.2636,3.2667,3.2831,3.2566,3.257,3.2573,0,3.1703,3.178,3.1958,3.2027,3.2065,3.2146,3.2229,3.2303,3.2366,3.2378,3.2433,3.2423,3.2526,3.2452,3.2593,3.2519,3.2562,3.2582,3.2589,3.26,3.2516,3.2653,3.2883,3.2908,3.2609,3.2606,3.2603,0,3.1834,3.198,3.2107,3.2144,3.2227,3.2285,3.2321,3.238,3.2433,3.2504,3.2538,3.2619,3.2663,3.2724,3.2736,3.268,3.2878,3.2804,3.289,3.289,3.2933,3.293,3.3174,3.2959,3.2959,3.2959,3.2958,0,3.2021,3.2131,3.2167,3.2245,3.2367,3.2378,3.2498,3.2529,3.2582,3.2664,3.2647,3.2722,3.2733,3.281,3.2819,3.2936,3.2955,3.2966,3.2968,3.2969,3.2968,3.2998,3.2988,3.2965,3.2964,3.2962,3.2961,0,3.2188,3.2216,3.2353,3.2422,3.2441,3.2528,3.2585,3.2658,3.2681,3.2784,3.2808,3.2843,3.2934,3.2951,3.3057,3.3063,3.3202,3.3191,3.3183,3.3182,3.3267,3.326,3.354,3.3578,3.3337,3.334,3.3342,0,3.2307,3.2392,3.2471,3.2527,3.2568,3.2657,3.2712,3.2725,3.2783,3.2863,3.2926,3.3016,3.3089,3.3234,3.3266,3.3347,3.3338,3.3431,3.335,3.335,3.3341,3.3337,3.3346,3.3447,3.345,3.3452,3.3453,0,3.2515,3.2526,3.2609,3.2698,3.2766,3.2836,3.2901,3.2946,3.2968,3.3033,3.3129,3.3186,3.3296,3.3385,3.3466,3.3499,3.348,3.3479,3.3503,3.3506,3.3499,3.3505,3.3227,3.3472,3.347,3.3469,3.3468,3.3467,3.2663,3.2738,3.2807,3.29,3.2952,3.3014,3.3088,3.3121,3.3202,3.3297,3.3298,3.3402,3.3462,3.357,3.3609,3.3688,3.3658,3.3693,3.3702,3.3711,3.372,3.3486,3.3702,3.3702,3.3701,3.3701,3.37,0,3.2872,3.2916,3.3002,3.3097,3.317,3.3149,3.3221,3.3283,3.3376,3.3436,3.3509,3.3619,3.3705,3.3745,3.383,3.3886,3.3879,3.3908,3.3904,3.3912,3.3741,3.3712,3.3912,3.3912,3.3912,3.3912,3.3912,3.3912,3.2989,3.3117,3.3136,3.3288,3.3329,3.3435,3.3478,3.3535,3.3583,3.3708,3.3781,3.3808,3.386,3.3949,3.4026,3.4036,3.4068,3.4101,3.4106,3.3946,3.3924,3.3904,3.3877,3.4108,3.4108,3.4271,3.4272,3.4274]}]]